FENGYUN 1C DEB

Satellite information

Favourite Embed

Satellite Type and Status

DEBRISIN ORBIT

Key statistics

Satellite FENGYUN 1C DEB at a glance.

Uptime

9555

Days in orbit

Revolutions

≈ 13.9

Per day

Orbit

SSO

Sun Synchronous Orbit

Inclination

99.5

Latest

Satellite identification and parameters

Extended collection of information and parameters for FENGYUN 1C DEB.

Object identification

Identified? True

Debris? True

Object name: FENGYUN 1C DEB

International designator: 1999-025TD

Object number (NORAD): 30148

Object ID (CCSDS): 30148

Country: PEOPLES REPUBLIC OF CHINA (PRC)

Current information (Y/N): Y

RCS size: SMALL

Orbital parameters

Period: 103.736 minutes

Inclination: 99.5317 deg

SMA: 7313.285 km

Apoapsis: 1032.728 km

Periapsis: 837.573 km

RAAN: 333.0883 deg

Eccentricy: 0.0133425

Argument of periapsis: 260.9743 deg

Mean anomaly: 127.5843 deg

Mean motion: 13.88142379 rev/day

Mean motion (dot): 0.00000395 rev/day2

B* drag term: 0.00034574 1/REarth

Two-line elements (TLE)

Creation date: July 6, 2025, 6:05 p.m.

Reference frame: TEME

Reference center: EARTH

Epoch: July 6, 2025, 8:23 a.m. UTC

TLE line 0: 0 FENGYUN 1C DEB

TLE line 1: 1 30148U 99025TD 25187.34966339 .00000395 00000-0 34574-3 0 9990

TLE line 2: 2 30148 99.5317 333.0883 0133425 260.9743 127.5843 13.88142379933055

Live tracking on map

Real-time ground track for satellite FENGYUN 1C DEB.

In-orbit conjunctions

A list of the most updated potential collisions computed for object FENGYUN 1C DEB.

Target Orbit TCA Probability of collision Miss distance Type
CZ-6A DEB LEO 2025-01-26 22:18:31 0.0001220761 395.0 (m) DEBRIS
COSMOS 2251 DEB LEO 2024-11-08 19:54:32 0.00119546 255.0 (m) DEBRIS
INFORMATOR 1 LEO 2024-11-03 19:42:27 0.0001857417 376.0 (m) PAYLOAD

Associated space launch

Chinese polar orbiting meteorological satellite

FENGYUN 1C DEB was lifted into orbit during the mission ‘Long March 4B | Feng Yun 1C’, on board a Long March 4B space rocket.

The launch took place on May 10, 1999, 1:33 a.m. from Launch Complex 7.

For more information about the launch, click the button.

Launch to space Long March 4B | Feng Yun 1C
Long March 4B | Feng Yun 1C

Agency: N/A

Status: Launch Successful

Launch date: May 10, 1999, 1:33 a.m. UTC

Rocket: Long March 4B

Launch pad: Launch Complex 7

Location: Taiyuan Satellite Launch Center, People's Republic of China

...

Latest news about this satellite

There are no fresh news available about this satellite. Check back as we update our databases every day.


Newsletter sign-up

Weekly statistics, charts and insights to help you stay on top of the space industry.